Regional Weather Roundup
Issued by NWS

Home | Current Version | Previous Version | Graphics & Text | Print | Product List | Glossary On
Versions: 1 2 3 4 5 6 7 8 9 10 11 12 13 14 15 16 17 18 19 20 21 22 23 24 25 26 27 28 29 30 31 32 33 34 35 36 37 38 39 40 41 42 43 44 45 46 47 48
000
ASUS45 KBOU 221907
RWRCO

WEATHER ROUNDUP FOR COLORADO
NATIONAL WEATHER SERVICE DENVER/BOULDER CO
100 PM MDT TUE JUL 22 2014

NOTE: "FAIR" INDICATES FEW OR NO CLOUDS BELOW 12000 FEET WITH NO
SIGNIFICANT WEATHER AND/OR OBSTRUCTIONS TO VISIBILITY.

COZ001>005-013-030-031-222000-
...NORTHWEST COLORADO...

CITY           SKY/WX    TMP DP  RH WIND       PRES   REMARKS
CRAIG          SUNNY     90  33  13 VRB7      30.36F
HAYDEN         SUNNY     86  34  15 W6        30.40F
MEEKER         SUNNY     88  31  13 S3        30.38F
MOUNT WERNER   NOT AVBL
STEAMBOAT SPGS SUNNY     84  33  16 CALM      30.43F
WALDEN         SUNNY     79  23  12 W10G17    30.52F
$$

COZ006>008-011-222000-
...WEST CENTRAL VALLEYS...

CITY           SKY/WX    TMP DP  RH WIND       PRES   REMARKS
GRAND JUNCTION SUNNY     92  26   9 VRB3      30.25F
MONTROSE       SUNNY     93  37  14 NW9       30.33F
EAGLE          MOSUNNY   86  32  14 CALM      30.41F
RIFLE          SUNNY     90  28  11 VRB6      30.31F
DELTA          SUNNY     94  28   9 S5        30.29F
NUCLA          SUNNY     91  27   9 N9        30.36F
$$

COZ017>023-064>068-222000-
...SOUTHWEST COLORADO...

CITY           SKY/WX    TMP DP  RH WIND       PRES   REMARKS
DURANGO        SUNNY     90  26  10 SE7       30.38F
CORTEZ         SUNNY     93  28  10 SE12      30.31F
PAGOSA SPRINGS SUNNY     84  26  12 S3        30.47F
TELLURIDE      SUNNY     81  21  11 SW5       30.59S
WOLF CREEK PAS NOT AVBL
$$

COZ009-010-012-014-032>034-037-058>063-222000-
...CENTRAL COLORADO...

CITY           SKY/WX    TMP DP  RH WIND       PRES   REMARKS
ASPEN          SUNNY     85  24  11 N9G16     30.49F
BUENA VISTA    SUNNY     86  19   8 SE8       30.50F
COPPER MTN     SUNNY     68  18  14 SW5G10    30.87S
BERTHOUD PASS  FAIR      59  45  58 N6        30.93S
COTTONWOOD PAS MOSUNNY   84   9   6 E6G17     30.68S
GUNNISON       SUNNY     81  34  18 SE5       30.52F
KREMMLING      SUNNY     86  18   8 SE5       30.47F
LEADVILLE      SUNNY     73  18  12 E6        30.67F
MONARCH PASS   SUNNY     64  27  24 W3        30.97S
SALIDA         SUNNY     88  17   7 E7        30.54S
SUNLIGHT       SUNNY     70  34  26 NW3       30.79S
WILKERSON PASS SUNNY     73  21  14 S7        30.83F
$$

COZ069>075-222000-
...SAN LUIS VALLEY/SANGRE DE CRISTO MOUNTAINS...

CITY           SKY/WX    TMP DP  RH WIND       PRES   REMARKS
ALAMOSA        SUNNY     84  42  22 VRB3      30.47F
LA VETA PASS   SUNNY     77  36  22 E16G25    30.70F
SAGUACHE       SUNNY     82  34  17 S8        30.50S
$$

COZ035-036-038>040-222000-
...NORTHERN COLORADO FRONT RANGE...

CITY           SKY/WX    TMP DP  RH WIND       PRES   REMARKS
DENVER INTL AP MOSUNNY   88  46  23 CALM      30.32F
DMNS CITY PARK   N/A     86  51  29 NE7       30.32F
AURORA         MOSUNNY   84  50  30 NE7       30.36F
FRONT RANGE AP NOT AVBL
ERIE MUNI ARPT SUNNY     85  51  30 NE3       30.31F
BOULDER MUN AP SUNNY     84  50  30 CALM      30.33F
CENTENNIAL     MOSUNNY   84  49  29 N6        30.37F
BROOMFIELD     MOSUNNY   84  48  28 CALM      30.36F
FORT COLLINS   SUNNY     86  55  35 E5        30.31F
LONGMONT       SUNNY     89  52  28 E3        30.32F
$$

COZ041-046-047-076>085-087-088-222000-
...PIKES PEAK/PALMER DIVIDE AND SOUTHERN FOOTHILLS...

CITY           SKY/WX    TMP DP  RH WIND       PRES   REMARKS
COLO. SPRINGS  MOSUNNY   90  40  17 E12G20    30.37S
A. F. ACADEMY  MOSUNNY   85  45  24 NW8       30.39F
ELLICOTT       SUNNY     88  46  23 NE16G22   30.36F
FALCON         SUNNY     84  49  29 N14       30.44S
FORT CARSON    NOT AVBL
LIMON          SUNNY     91  49  23 E10       30.32F
MONUMENT HILL  SUNNY     79  46  31 NE5       30.46S
TRINIDAD       SUNNY     94  42  16 E13G23    30.31F
$$

COZ042>045-048>051-090-091-222000-
...NORTHEAST COLORADO...

CITY           SKY/WX    TMP DP  RH WIND       PRES   REMARKS
GREELEY ARPT   SUNNY     84  55  37 E7        30.30F
AKRON          SUNNY     88  55  32 E13       30.28F
BURLINGTON     SUNNY     93  58  30 E8        30.21S
WRAY             N/A     93  56  29 NE16      30.21F
STERLING       SUNNY     93  61  33 SE10      30.23F
HOLYOKE        SUNNY     91  59  33 NE5       30.24S
FORT MORGAN    SUNNY     90  50  25 SE7       30.28F
$$

COZ086-089-092>099-222000-
...SOUTHEAST COLORADO...

CITY           SKY/WX    TMP DP  RH WIND       PRES   REMARKS
PUEBLO         SUNNY     95  48  20 E20       30.24S
LA JUNTA       SUNNY     93  55  27 E12       30.21S
LAMAR          SUNNY     93  60  33 SE12      30.16S
SPRINGFIELD      N/A     91  56  30 E12       30.21F
$$



USA.gov is the U.S. government's official web portal to all federal, state and local government web resources and services.